This is the latest recevied weather packets stored in our database for station/object KC9GSD. If no packets are shown the sender has not sent any weather packets the latest 1 day(s).
| Time | Temp. | Humidity | Pressure | Rain* | Wind** | Luminosity | Snow |
|---|---|---|---|---|---|---|---|
| 1777993103 | 21.67° C | 55% | 1014.7 hPa | 0 mm | 0.45 m/s, 144° | 590 W/m² | - |
| 1777992801 | 22.22° C | 53% | 1014.9 hPa | 0 mm | 0.89 m/s, 248° | 574 W/m² | - |
| 1777992498 | 21.67° C | 57% | 1014.7 hPa | 0 mm | 0 m/s | 559 W/m² | - |
| 1777992197 | 21.67° C | 55% | 1014.7 hPa | 0 mm | 0.89 m/s, 133° | 545 W/m² | - |
| 1777991893 | 21.11° C | 55% | 1014.7 hPa | 0 mm | 0 m/s | 533 W/m² | - |
| 1777991591 | 20.56° C | 60% | 1014.6 hPa | 0 mm | 0.45 m/s, 126° | 517 W/m² | - |
| 1777991288 | 20.56° C | 59% | 1014.9 hPa | 0 mm | 0.89 m/s, 143° | 505 W/m² | - |
| 1777990986 | 21.11° C | 62% | 1014.7 hPa | 0 mm | 0 m/s | 486 W/m² | - |
| 1777990683 | 20.56° C | 60% | 1014.8 hPa | 0 mm | 0.45 m/s, 236° | 470 W/m² | - |
| 1777990380 | 21.67° C | 60% | 1014.9 hPa | 0 mm | 0.45 m/s, 213° | 455 W/m² | - |
| 1777990075 | 21.11° C | 62% | 1014.9 hPa | 0 mm | 0.45 m/s, 171° | 440 W/m² | - |
| 1777989772 | 21.11° C | 61% | 1014.9 hPa | 0 mm | 0 m/s | 409 W/m² | - |
| 1777989469 | 20° C | 60% | 1014.9 hPa | 0 mm | 0 m/s | 402 W/m² | - |
| 1777989166 | 20° C | 65% | 1015.1 hPa | 0 mm | 0.45 m/s, 338° | 395 W/m² | - |
| 1777988862 | 19.44° C | 65% | 1014.8 hPa | 0 mm | 0.45 m/s, 162° | 374 W/m² | - |
| 1777988560 | 20° C | 60% | 1014.7 hPa | 0 mm | 0 m/s | 352 W/m² | - |
| 1777988256 | 19.44° C | 65% | 1014.7 hPa | 0 mm | 0 m/s | 325 W/m² | - |
| 1777987953 | 19.44° C | 63% | 1014.8 hPa | 0 mm | 0 m/s | 322 W/m² | - |
| 1777987648 | 18.89° C | 63% | 1014.7 hPa | 0 mm | 0.45 m/s, 157° | 303 W/m² | - |
| 1777987346 | 17.78° C | 68% | 1014.7 hPa | 0 mm | 0 m/s | 290 W/m² | - |
| 1777987043 | 17.22° C | 69% | 1014.6 hPa | 0 mm | 0.89 m/s, 90° | 160 W/m² | - |
| 1777986740 | 16.67° C | 72% | 1014.8 hPa | 0 mm | 0 m/s | 117 W/m² | - |
| 1777986438 | 16.67° C | 74% | 1014.9 hPa | 0 mm | 0 m/s | 122 W/m² | - |
| 1777986136 | 16.11° C | 72% | 1014.9 hPa | 0 mm | 0 m/s | 194 W/m² | - |
| 1777985833 | 15.56° C | 73% | 1014.6 hPa | 0 mm | 0 m/s | 91 W/m² | - |
* Rain latest hour (hover to see other rain measurements)
** Current wind speed in m/s (hover to see current wind gust speed)